Date,TemperatureHighF,TemperatureAvgF,TemperatureLowF,DewpointHighF,DewpointAvgF,DewpointLowF,HumidityHigh,HumidityAvg,HumidityLow,PressureMaxIn,PressureMinIn,WindSpeedMaxMPH,WindSpeedAvgMPH,GustSpeedMaxMPH,PrecipitationSumIn
2013-1-1,41.4,37.6,31.8,38.0,33.7,21.0,97,87,51,30.07,29.89,14,3,17,0.22
2013-1-2,34.7,29.5,25.3,34.0,28.8,24.0,98,97,96,30.09,29.85,10,2,15,0.42
2013-1-3,28.5,24.6,18.4,28.0,23.8,17.0,97,96,94,30.22,30.06,0,0,0,0.00
2013-1-4,23.4,18.2,15.3,20.0,16.2,14.0,94,91,84,30.40,30.22,0,0,0,0.00
2013-1-5,42.2,32.9,16.1,26.0,14.0,4.0,93,51,20,30.46,30.19,9,2,11,0.02
2013-1-6,33.9,28.6,24.3,32.0,27.1,22.0,97,94,78,30.18,30.02,12,3,27,0.01
2013-1-7,42.5,29.3,20.2,23.0,19.7,5.0,96,71,22,30.42,30.16,11,4,18,0.00
2013-1-8,44.6,33.8,23.1,37.0,22.5,9.0,95,67,29,30.42,30.32,11,5,14,0.00
2013-1-9,49.0,44.7,38.4,46.0,42.5,38.0,98,92,79,30.41,30.35,10,3,18,0.02
2013-1-10,51.8,45.4,38.1,51.0,44.6,35.0,98,97,87,30.43,30.23,10,4,16,0.00
2013-1-11,49.5,44.8,37.0,49.0,44.6,35.0,99,99,93,30.23,30.08,12,6,26,0.13
2013-1-12,60.7,53.2,49.1,54.0,52.0,49.0,99,96,76,30.12,29.95,11,4,18,0.00
2013-1-13,57.2,50.7,47.4,52.0,49.3,47.0,99,95,73,30.01,29.90,9,5,16,0.01
2013-1-14,52.2,49.4,38.5,52.0,49.3,38.0,99,99,99,30.06,29.94,11,2,14,0.74
2013-1-15,47.1,43.4,40.1,47.0,43.3,40.0,99,99,99,30.04,29.92,10,4,14,0.49
2013-1-16,52.7,45.3,42.9,47.0,44.0,41.0,100,96,65,29.95,29.87,12,4,19,0.36
2013-1-17,44.3,37.0,27.6,44.0,36.5,27.0,99,98,97,29.90,29.73,16,4,25,0.19
2013-1-18,31.1,24.3,18.0,31.0,17.4,-99.9,98,91,94,30.43,0.00,13,-35,19,0.17
2013-1-19,41.6,31.9,23.6,27.0,20.1,10.0,94,65,30,30.45,30.14,8,4,17,0.24
2013-1-20,36.8,31.8,28.1,28.0,22.4,9.0,86,70,35,30.13,30.04,10,4,24,0.85
2013-1-21,34.2,27.1,13.8,25.0,16.4,3.0,86,65,51,30.06,29.84,13,4,26,0.07
2013-1-22,14.0,8.7,3.1,5.0,-2.4,-7.0,79,62,42,30.29,29.84,21,7,36,0.00
2013-1-23,27.8,17.2,7.7,24.0,9.5,-5.0,85,72,55,30.39,30.13,14,4,31,0.00
2013-1-24,28.2,17.4,9.2,25.0,9.4,-12.0,93,73,27,30.38,29.98,29,8,42,0.00
2013-1-25,32.3,17.0,5.6,32.0,14.2,0.0,97,89,73,30.39,30.15,10,6,19,0.00
2013-1-26,31.5,23.1,18.3,25.0,19.9,11.0,96,89,47,30.39,30.10,12,4,13,0.00
2013-1-27,41.8,33.7,27.9,27.0,12.7,-7.0,93,46,16,30.45,30.33,7,2,9,0.37
2013-1-28,52.0,43.2,28.2,42.0,38.0,27.0,97,82,67,30.33,30.19,10,5,24,0.41
2013-1-29,58.9,50.9,45.2,50.0,44.5,40.0,98,80,51,30.18,29.88,8,3,17,0.02
2013-1-30,52.3,47.7,33.5,52.0,47.5,33.0,99,99,98,29.88,29.31,14,6,26,1.09
2013-1-31,32.9,19.6,14.6,32.0,17.9,13.0,98,92,83,29.98,29.34,8,0,14,0.05
2013-2-1,26.3,10.8,3.2,22.0,7.8,1.0,94,88,75,30.37,29.90,0,0,0,0.00
2013-2-2,28.5,21.3,9.8,23.0,13.0,-8.0,95,73,34,30.41,30.02,7,2,16,0.00
2013-2-3,22.6,19.6,14.6,21.0,18.3,13.0,95,94,93,30.01,29.88,16,5,29,0.00
2013-2-4,38.4,26.4,12.7,31.0,20.5,11.0,93,80,57,30.16,30.00,16,5,25,0.16
2013-2-5,36.9,32.7,28.6,31.0,25.4,17.0,95,76,52,29.99,29.89,8,3,14,0.15
2013-2-6,40.9,33.0,25.6,31.0,20.2,10.0,95,64,33,30.24,29.95,13,3,18,0.28
2013-2-7,36.5,32.3,29.2,32.0,26.8,16.0,97,81,49,30.23,29.97,7,4,15,0.52
2013-2-8,36.0,30.9,20.6,36.0,29.9,19.0,98,96,81,30.02,29.84,19,6,37,0.36
2013-2-9,41.7,27.5,16.1,19.0,13.9,3.0,94,63,22,30.38,29.99,24,7,37,0.10
2013-2-10,36.2,31.8,28.4,34.0,19.8,12.0,98,63,44,30.35,30.10,12,8,21,0.05
2013-2-11,44.8,39.5,33.1,45.0,35.4,20.0,99,87,50,30.11,29.96,12,5,22,0.10
2013-2-12,40.2,31.7,25.1,30.0,18.5,2.0,96,62,24,30.05,29.90,21,6,28,0.26
2013-2-13,33.8,29.3,22.9,33.0,28.6,22.0,98,97,95,29.90,29.59,12,3,18,0.20
2013-2-14,36.0,26.6,17.9,29.0,23.3,17.0,96,87,64,30.07,29.80,9,3,15,0.26
2013-2-15,41.3,31.4,22.1,30.0,26.3,21.0,95,83,52,30.08,29.93,12,3,16,0.05
2013-2-16,21.2,16.0,8.7,20.0,14.3,7.0,94,92,91,29.93,29.79,15,5,26,0.00
2013-2-17,15.6,10.2,4.4,13.0,7.3,2.0,90,88,78,30.32,29.92,25,7,32,0.00
2013-2-18,39.1,28.0,15.0,25.0,18.1,8.0,77,67,48,30.43,30.11,13,5,17,0.09
2013-2-19,33.3,27.7,19.1,32.0,22.2,8.0,97,80,59,30.10,29.84,16,6,27,0.03
2013-2-20,28.4,19.7,13.7,11.0,5.8,-16.0,83,58,16,30.18,29.93,26,9,37,0.00
2013-2-21,46.5,34.3,25.0,27.0,-7.1,-41.0,92,23,3,30.23,30.12,12,4,21,0.00
2013-2-22,40.3,30.1,24.8,40.0,29.4,24.0,99,97,92,30.14,30.04,8,4,12,0.39
2013-2-23,45.1,41.1,36.7,43.0,39.7,29.0,99,95,69,30.07,29.76,6,2,10,0.35
2013-2-24,37.0,31.5,25.3,34.0,24.4,18.0,97,77,50,30.02,29.74,12,5,25,0.00
2013-2-25,37.4,30.2,24.5,26.0,17.1,-3.0,92,62,20,30.06,29.98,11,5,18,0.00
2013-2-26,36.4,33.2,28.5,36.0,32.6,27.0,98,98,93,29.98,29.50,34,7,39,1.16
2013-2-27,40.3,29.0,23.2,34.0,25.9,22.0,98,89,61,29.76,29.55,10,3,21,0.01
2013-2-28,24.7,20.0,18.4,23.0,18.5,17.0,94,93,91,29.87,29.62,17,6,24,0.00
2013-3-1,23.0,20.9,18.7,22.0,19.7,17.0,95,95,94,29.94,29.86,8,1,11,0.00
2013-3-2,22.1,18.8,12.1,21.0,17.4,10.0,95,94,92,29.91,29.84,5,1,10,0.00
2013-3-3,15.6,12.0,8.9,14.0,10.2,7.0,93,92,91,30.04,29.90,8,2,11,0.00
2013-3-4,32.9,21.2,10.3,30.0,18.4,8.0,95,89,69,30.23,30.04,6,2,10,0.08
2013-3-5,36.9,33.8,21.8,36.0,30.7,21.0,98,89,69,30.15,29.51,7,2,13,1.03
2013-3-6,21.1,16.2,13.6,20.0,14.6,12.0,95,93,92,30.16,29.46,0,0,0,0.00
2013-3-7,22.6,18.1,16.1,22.0,16.8,15.0,96,94,93,30.34,30.17,0,0,0,0.00
2013-3-8,28.5,20.9,15.2,28.0,19.8,14.0,97,95,93,30.43,30.28,0,0,0,0.02
2013-3-9,50.9,39.3,25.8,28.0,22.8,7.0,97,56,23,30.41,30.23,5,1,9,0.12
2013-3-10,47.5,40.4,34.7,31.0,27.3,23.0,71,60,49,30.22,30.09,12,7,19,0.00
2013-3-11,42.8,39.6,36.5,43.0,38.0,29.0,99,94,69,30.08,29.80,16,8,24,0.43
2013-3-12,43.5,32.0,26.8,43.0,31.4,25.0,99,97,94,29.99,29.73,7,1,13,0.36
2013-3-13,27.4,21.6,13.6,26.0,19.1,11.0,96,90,80,30.11,29.96,0,0,0,0.00
2013-3-14,26.9,18.1,9.8,15.0,11.7,8.0,92,77,56,30.34,30.10,8,2,17,0.00
2013-3-15,49.6,38.3,21.0,38.0,27.8,13.0,96,68,36,30.23,29.93,14,6,26,0.01
2013-3-16,59.6,51.0,45.0,44.0,41.0,38.0,83,69,51,29.92,29.68,9,5,21,0.00
2013-3-17,56.1,46.0,33.5,46.0,41.9,33.0,97,86,57,29.89,29.77,8,3,12,0.00
2013-3-18,40.2,33.9,29.9,40.0,33.4,29.0,99,98,97,29.93,29.82,13,3,19,0.42
2013-3-19,41.7,34.0,25.0,41.0,24.6,4.0,98,72,31,30.01,29.81,15,4,24,0.07
2013-3-20,36.1,26.8,18.1,21.0,7.9,3.0,92,47,27,30.06,29.82,14,5,27,0.00
2013-3-21,18.1,12.7,7.4,16.0,7.2,5.0,92,79,65,30.01,29.70,15,7,23,0.00
2013-3-22,36.7,21.8,10.2,26.0,10.3,5.0,91,65,29,30.12,30.00,12,3,24,0.00
2013-3-23,40.1,33.3,28.5,37.0,31.5,27.0,97,93,85,30.06,29.86,7,2,14,0.00
2013-3-24,37.6,31.3,26.5,37.0,30.4,26.0,98,96,90,29.87,29.44,8,3,16,0.75
2013-3-25,27.4,19.4,16.3,27.0,18.1,15.0,97,94,93,29.84,29.45,28,6,28,0.00
2013-3-26,20.2,17.9,16.0,19.0,16.6,14.0,94,94,93,30.19,29.84,19,8,25,0.00
2013-3-27,21.5,18.2,15.4,20.0,16.8,14.0,95,94,93,30.30,30.16,18,8,27,0.00
2013-3-28,29.5,20.7,15.9,27.0,16.4,-99.9,96,90,83,30.36,30.25,17,-17,27,0.15
2013-3-29,38.3,29.6,23.3,30.0,20.9,12.0,97,73,37,30.36,30.24,7,2,13,0.07
2013-3-30,46.4,37.3,29.8,35.0,29.4,24.0,97,74,55,30.23,30.05,5,1,9,0.00
2013-3-31,44.9,40.4,35.7,42.0,39.0,34.0,98,95,84,30.04,29.81,9,3,16,0.53
2013-4-1,41.4,37.9,33.0,39.0,34.0,27.0,98,86,75,29.92,29.79,10,4,19,0.01
2013-4-2,38.5,29.9,22.3,28.0,19.0,12.0,92,67,40,30.14,29.92,11,4,17,0.00
2013-4-3,43.7,32.2,23.0,16.0,12.5,8.0,58,45,28,30.28,30.13,10,4,18,0.00
2013-4-4,34.4,30.0,24.8,34.0,21.0,6.0,97,74,36,30.25,29.94,15,3,20,0.01
2013-4-5,39.7,33.1,28.9,33.0,31.0,28.0,98,92,76,30.08,29.91,17,5,24,0.18
2013-4-6,51.5,42.3,35.6,31.0,28.8,26.0,78,60,44,30.21,30.09,13,4,18,0.00
2013-4-7,56.5,45.9,35.2,41.0,35.8,30.0,84,69,47,30.14,30.05,10,4,13,0.00
2013-4-8,61.6,52.2,43.1,48.0,43.1,38.0,85,72,50,30.09,30.00,8,3,12,0.00
2013-4-9,68.6,57.6,48.5,50.0,46.9,44.0,86,70,43,30.13,30.00,8,3,13,0.00
2013-4-10,71.5,61.1,52.2,53.0,48.7,41.0,87,65,45,30.01,29.83,8,3,11,0.00
2013-4-11,64.5,55.9,49.8,55.0,50.0,47.0,98,81,58,29.84,29.58,10,4,19,0.51
2013-4-12,56.0,48.4,38.7,55.0,44.5,33.0,98,87,54,29.74,29.49,11,4,25,0.90
2013-4-13,52.6,43.0,35.0,34.0,30.7,24.0,88,65,34,30.03,29.71,23,7,32,0.00
2013-4-14,58.1,49.1,42.3,42.0,32.7,24.0,96,55,40,30.05,29.89,12,4,17,0.02
2013-4-15,49.8,45.5,41.5,49.0,44.9,41.0,99,98,95,30.16,29.87,8,3,23,0.09
2013-4-16,63.9,53.9,47.5,55.0,50.3,47.0,99,89,60,30.25,30.13,8,4,14,0.01
2013-4-17,59.6,53.7,50.3,54.0,50.9,47.0,97,91,65,30.17,30.06,12,3,23,0.33
2013-4-18,59.2,53.9,51.0,54.0,51.7,50.0,99,92,75,30.06,29.83,15,6,19,0.01
2013-4-19,54.5,48.8,31.1,54.0,48.6,31.0,99,99,98,29.83,29.60,20,8,31,0.79
2013-4-20,40.7,32.0,23.0,33.0,25.7,22.0,98,80,55,30.32,29.73,30,8,41,0.00
2013-4-21,45.8,37.8,33.4,30.0,24.9,20.0,81,61,46,30.43,30.32,9,3,16,0.00
2013-4-22,51.2,38.9,29.9,34.0,29.7,22.0,96,72,44,30.37,30.21,9,2,12,0.00
2013-4-23,57.3,45.8,33.9,41.0,33.6,19.0,84,64,46,30.24,30.06,8,3,11,0.00
2013-4-24,60.5,49.6,40.5,50.0,44.3,39.0,97,83,59,30.07,29.93,13,4,19,0.06
2013-4-25,50.5,40.1,27.2,39.0,25.0,1.0,97,62,13,30.30,29.95,16,5,25,0.01
2013-4-26,53.9,44.2,35.3,33.0,27.7,22.0,66,53,37,30.37,30.29,11,3,17,0.00
2013-4-27,47.0,43.0,40.5,43.0,39.4,33.0,98,87,64,30.34,30.16,8,2,15,0.17
2013-4-28,46.3,41.5,37.0,46.0,41.0,36.0,99,98,95,30.17,29.99,12,5,16,0.92
2013-4-29,55.5,48.6,43.5,49.0,46.3,43.0,99,92,67,30.03,29.92,5,2,9,0.02
2013-4-30,59.3,51.0,47.5,52.0,49.3,47.0,99,94,72,30.09,29.92,6,2,11,0.16
2013-5-1,48.5,46.0,43.4,48.0,45.1,43.0,99,97,90,30.22,30.07,16,4,23,0.01
2013-5-2,48.3,45.8,43.5,48.0,45.6,43.0,99,99,98,30.24,30.16,14,4,25,0.20
2013-5-3,45.7,42.9,40.4,44.0,41.7,38.0,99,95,83,30.18,30.05,14,4,26,0.03
2013-5-4,41.4,38.8,34.5,41.0,37.4,25.0,99,95,68,30.05,29.95,18,7,41,0.09
2013-5-5,43.1,41.0,38.7,43.0,40.7,39.0,99,99,98,30.01,29.80,34,10,64,1.78
2013-5-6,49.3,43.2,40.6,46.0,40.2,-99.9,99,92,60,29.85,0.00,11,-8,30,1.38
2013-5-7,46.2,41.6,39.5,44.0,40.3,36.0,98,95,83,29.90,29.81,9,2,12,0.38
2013-5-8,48.9,45.2,42.0,48.0,45.0,42.0,99,98,94,30.01,29.87,11,3,22,0.13
2013-5-9,57.2,48.2,45.1,50.0,46.7,45.0,99,95,73,30.09,29.96,12,4,18,0.03
2013-5-22,63.0,55.5,52.2,57.0,53.5,51.0,98,93,76,29.87,29.80,4,2,9,0.00
2013-5-23,64.1,55.3,48.7,56.0,52.0,48.0,99,90,62,29.86,29.78,9,3,18,0.01
2013-5-24,48.4,42.9,36.4,48.0,38.8,33.0,98,86,63,30.17,29.77,18,9,33,0.01
2013-5-25,56.5,45.0,35.5,39.0,33.2,26.0,88,66,38,30.31,30.18,18,6,25,0.00
2013-5-26,56.6,49.9,41.5,45.0,34.7,9.0,80,58,22,30.23,30.15,14,3,17,0.00
2013-5-27,65.1,55.6,46.9,55.0,49.4,43.0,93,80,67,30.20,30.07,5,1,11,0.00
2013-5-28,66.9,58.4,51.3,58.0,54.2,50.0,97,86,61,30.14,30.05,5,2,11,0.00
2013-5-29,69.8,60.5,52.3,59.0,54.8,50.0,98,83,56,30.15,30.06,6,2,11,0.01
2013-5-30,68.4,59.5,53.6,59.0,55.5,53.0,98,87,66,30.16,30.08,5,2,13,0.00
2013-5-31,68.3,60.1,53.6,59.0,56.0,52.0,98,87,69,30.13,30.03,14,2,14,0.00
2013-6-1,70.3,61.2,55.8,63.0,57.2,55.0,99,87,60,30.04,29.91,11,2,13,0.00
2013-6-2,60.9,57.7,55.0,60.0,57.2,55.0,99,98,90,29.94,29.80,6,1,10,0.00
2013-6-3,64.9,58.3,54.5,58.0,55.4,54.0,99,90,69,29.91,29.79,8,2,15,0.00
2013-6-4,64.9,57.2,53.6,58.0,54.6,52.0,97,91,77,30.02,29.88,5,0,8,0.00
2013-6-5,63.5,57.4,53.2,60.0,56.5,53.0,99,96,87,30.02,29.90,7,1,9,0.00
2013-6-6,65.2,58.8,55.8,63.0,58.3,55.0,99,97,88,29.91,29.71,5,1,10,0.01
2013-6-7,58.8,56.8,55.1,58.0,56.4,55.0,99,98,94,29.77,29.60,14,3,19,0.01
2013-6-8,65.9,59.1,50.4,59.0,55.0,50.0,98,87,70,30.01,29.76,11,2,11,0.00
2013-6-9,68.1,60.2,54.6,63.0,57.7,53.0,99,92,70,30.06,29.93,7,1,15,0.00
2013-6-10,64.5,59.2,54.9,62.0,56.9,52.0,99,92,65,29.94,29.81,8,2,18,0.00
2013-6-11,63.6,57.2,51.9,57.0,54.9,51.0,99,92,78,29.96,29.82,11,4,18,0.00
2013-6-12,73.0,64.9,58.2,66.0,61.5,55.0,98,89,75,29.96,29.85,16,4,22,0.01
2013-6-13,72.9,62.4,51.0,63.0,57.4,49.0,99,85,57,29.84,29.58,19,5,25,0.00
2013-6-14,58.7,53.1,49.0,50.0,49.1,48.0,98,86,70,30.02,29.69,15,5,25,0.00
2013-6-15,66.9,57.9,48.4,56.0,50.2,43.0,96,76,59,30.10,30.01,9,1,12,0.00
2013-6-16,68.3,61.2,55.5,62.0,57.3,54.0,97,87,73,30.03,29.95,5,1,11,0.00
2013-6-17,66.4,60.5,55.5,62.0,58.9,55.0,98,94,79,29.97,29.87,6,1,11,0.00
2013-6-18,61.6,58.2,54.3,61.0,57.8,54.0,99,98,96,29.88,29.73,8,2,15,0.00
2013-6-19,65.4,58.0,51.7,59.0,55.0,52.0,99,90,68,30.06,29.85,5,1,12,0.00
2013-6-20,65.1,59.0,54.8,60.0,57.0,54.0,99,93,82,30.15,30.05,4,1,10,0.01
2013-6-21,68.3,60.6,55.0,58.0,55.8,53.0,99,85,60,30.18,30.11,7,1,11,0.00
2013-6-22,69.5,60.2,51.7,60.0,53.8,47.0,96,81,55,30.16,30.06,7,1,9,0.00
2013-6-23,68.2,61.4,55.4,62.0,57.6,54.0,99,88,63,30.14,30.06,5,0,7,0.00
2013-6-24,70.9,62.3,57.2,64.0,59.7,57.0,99,91,76,30.12,30.02,6,1,11,0.00
2013-6-25,71.9,63.7,59.2,63.0,60.5,56.0,98,89,68,30.07,29.93,8,2,13,0.00
2013-6-26,71.1,63.2,59.4,65.0,60.4,57.0,99,90,76,29.95,29.84,9,2,17,0.00
2013-6-27,64.2,61.1,55.9,63.0,60.0,54.0,99,96,86,29.85,29.69,10,3,18,0.00
2013-6-28,69.7,62.3,57.2,63.0,60.2,56.0,99,93,76,29.72,29.54,12,4,22,0.00
2013-6-29,69.5,61.6,56.8,59.0,54.9,50.0,98,80,51,29.65,29.53,9,2,13,0.00
2013-6-30,69.9,62.0,56.5,61.0,56.7,52.0,98,83,67,29.72,29.61,8,1,10,0.00
2013-7-1,66.3,59.3,56.0,62.0,58.2,55.0,99,96,85,29.88,29.68,5,1,14,0.00
2013-7-2,66.3,59.5,56.8,63.0,58.9,57.0,99,98,85,30.05,29.86,5,1,11,0.00
2013-7-3,62.0,59.0,54.5,62.0,58.8,54.0,99,99,91,30.13,30.01,6,1,14,0.00
2013-7-4,62.2,58.1,55.9,62.0,55.8,-99.9,100,97,96,30.15,30.09,13,-19,17,0.00
2013-7-5,68.2,60.7,58.2,66.0,60.2,58.0,100,98,87,30.15,30.07,10,2,15,0.01
2013-7-6,64.2,60.8,58.8,64.0,60.7,59.0,100,99,96,30.12,30.04,7,1,13,0.01
2013-7-7,69.0,61.7,59.5,66.0,61.4,59.0,100,98,89,30.08,30.00,6,1,11,0.00
2013-7-8,69.5,62.3,57.8,62.0,59.6,58.0,99,91,67,30.12,30.05,9,2,13,0.00
2013-7-9,73.9,64.8,59.0,66.0,61.3,57.0,99,88,69,30.09,29.99,6,1,12,0.00
2013-7-10,71.9,64.3,60.8,66.0,62.4,60.0,99,94,80,30.02,29.86,9,1,9,0.00
2013-7-11,66.4,62.1,60.1,64.0,61.0,59.0,99,96,88,29.87,29.81,6,1,12,0.00
2013-7-12,68.5,61.6,55.4,63.0,58.5,54.0,99,90,71,29.92,29.81,10,2,13,0.00
2013-7-13,62.8,58.3,54.7,61.0,57.1,53.0,99,95,87,30.07,29.91,8,2,27,0.00
2013-7-14,63.5,60.8,58.5,62.0,60.5,58.0,99,98,94,30.21,30.01,11,3,25,0.00
2013-7-15,71.9,63.0,58.4,64.0,60.3,58.0,99,91,72,30.28,30.20,8,1,18,0.00
2013-7-16,75.2,66.1,57.8,67.0,60.4,56.0,99,83,58,30.25,30.17,7,1,13,0.00
2013-7-17,72.8,65.1,58.7,68.0,62.6,58.0,98,91,81,30.20,30.09,6,2,13,0.00
2013-7-18,75.4,67.6,61.6,67.0,63.9,59.0,97,88,72,30.13,29.99,5,1,9,0.00
2013-7-19,70.3,65.6,60.0,67.0,63.6,60.0,99,93,80,30.02,29.91,7,0,9,0.00
2013-7-20,68.1,64.3,61.7,65.0,62.8,59.0,99,94,77,29.94,29.84,8,1,10,0.00
2013-7-21,69.7,63.3,60.5,64.0,61.7,59.0,99,94,83,29.93,29.84,10,2,16,0.00
2013-7-22,71.4,63.0,58.8,67.0,61.5,58.0,99,94,75,29.90,29.74,9,1,12,0.01
2013-7-23,67.6,61.3,57.8,62.0,59.7,58.0,99,94,76,29.80,29.70,17,5,26,0.00
2013-7-24,70.3,63.1,59.7,64.0,60.7,59.0,99,92,74,29.78,29.70,10,4,17,0.00
2013-7-25,69.0,61.7,56.0,59.0,56.9,53.0,99,85,59,29.96,29.76,8,1,11,0.00
2013-7-26,71.6,61.4,55.5,63.0,58.9,54.0,99,92,70,30.00,29.93,4,0,9,0.00
2013-7-27,66.5,60.0,56.7,62.0,59.1,57.0,99,96,80,29.94,29.82,3,0,9,0.00
2013-7-28,67.3,59.5,55.3,60.0,57.3,53.0,99,92,75,29.95,29.82,6,1,11,0.00
2013-7-29,68.5,59.1,51.7,56.0,52.2,47.0,95,79,55,30.14,29.95,8,2,15,0.00
2013-7-30,64.9,59.6,53.6,61.0,56.3,48.0,98,89,79,30.15,30.09,2,0,6,0.00
2013-7-31,60.1,58.1,55.0,60.0,57.6,53.0,99,97,86,30.11,29.91,6,1,11,0.00
2013-8-1,67.6,60.8,58.7,62.0,59.4,58.0,100,95,80,29.92,29.85,7,2,18,0.00
2013-8-2,70.1,61.5,54.9,61.0,57.5,53.0,99,87,62,29.97,29.87,8,2,11,0.00
2013-8-3,69.2,62.8,59.6,61.0,59.8,58.0,99,90,71,29.96,29.89,7,2,11,0.00
2013-8-4,65.2,60.9,57.0,61.0,57.3,54.0,99,88,69,29.98,29.85,18,4,21,0.00
2013-8-5,69.6,60.6,53.3,63.0,57.5,52.0,96,89,75,29.99,29.90,5,1,10,0.00
2013-8-6,68.3,62.1,56.0,64.0,59.8,54.0,99,92,77,29.94,29.87,5,1,11,0.00
2013-8-7,62.6,60.6,59.0,62.0,60.5,59.0,100,99,99,29.98,29.92,9,1,11,0.00
2013-8-8,69.4,63.2,59.3,67.0,62.8,59.0,100,98,88,29.99,29.93,2,0,10,0.00
2013-8-9,71.0,64.6,60.9,67.0,63.4,61.0,99,96,83,29.99,29.92,6,1,13,0.00
2013-8-10,70.5,64.2,60.2,67.0,62.6,59.0,99,94,84,30.04,29.96,6,1,16,0.00
2013-8-11,71.5,64.6,60.3,66.0,62.3,59.0,99,92,82,30.06,29.98,7,2,13,0.00
2013-8-12,70.7,64.2,61.1,66.0,62.8,60.0,99,95,83,30.00,29.88,7,2,16,0.00
2013-8-13,68.6,61.5,56.8,64.0,60.7,57.0,99,97,86,29.89,29.75,11,3,19,0.00
2013-8-14,59.3,55.2,51.6,57.0,52.3,49.0,99,90,70,30.02,29.80,11,4,16,0.00
2013-8-15,58.3,51.1,46.8,54.0,49.4,46.0,98,94,84,30.08,30.00,3,0,7,0.00
2013-8-16,62.4,54.2,47.3,55.0,50.4,47.0,99,88,66,30.10,30.04,5,1,10,0.00
2013-8-17,59.9,54.5,49.0,58.0,51.8,40.0,99,90,68,30.11,30.06,5,1,10,0.00
2013-8-18,68.3,59.0,54.5,63.0,57.8,54.0,100,96,75,30.13,30.06,3,0,6,0.00
2013-8-19,63.2,58.9,55.6,62.0,58.5,55.0,99,98,93,30.10,30.01,2,0,4,0.00
2013-8-20,69.7,61.5,55.9,64.0,59.5,55.0,99,93,81,30.11,30.04,4,0,8,0.00
2013-8-21,68.3,61.4,57.2,64.0,60.1,57.0,99,95,84,30.15,30.05,3,0,6,0.00
2013-8-22,68.6,62.5,58.5,62.0,60.1,58.0,99,92,78,30.10,29.97,11,3,13,0.00
2013-8-23,66.3,61.0,58.6,62.0,60.2,58.0,99,97,86,30.01,29.92,11,3,17,0.00
2013-8-24,64.7,58.6,53.5,58.0,53.6,49.0,99,84,62,30.23,30.01,6,1,12,0.00
2013-8-25,64.1,56.3,50.5,56.0,52.2,48.0,98,87,72,30.31,30.21,5,1,11,0.00
2013-8-26,65.8,58.2,50.6,58.0,54.7,50.0,98,88,70,30.27,30.09,11,3,19,0.00
2013-8-27,66.3,60.6,57.5,63.0,59.6,57.0,99,96,85,30.09,29.98,13,4,17,0.00
2013-8-28,69.7,63.5,60.7,65.0,62.4,61.0,100,96,83,29.99,29.86,12,4,21,0.00
2013-8-29,72.4,65.4,62.1,65.0,62.8,61.0,100,92,73,29.92,29.83,17,4,24,0.00
2013-8-30,69.6,63.1,60.0,67.0,62.3,60.0,99,97,87,29.93,29.85,6,0,10,0.00
2013-8-31,69.9,63.7,60.9,66.0,62.4,59.0,99,95,85,29.88,29.80,8,1,14,0.00
2013-9-1,72.4,64.0,60.4,68.0,62.2,59.0,99,94,81,29.83,29.72,9,2,15,0.00
2013-9-2,69.0,62.9,58.9,64.0,61.2,59.0,99,94,84,29.84,29.75,9,2,15,0.00
2013-9-3,65.2,60.0,55.4,61.0,57.8,52.0,99,92,68,29.93,29.75,13,4,20,0.00
2013-9-4,69.7,61.5,56.1,60.0,55.3,50.0,93,81,60,30.05,29.93,7,2,14,0.00
2013-9-5,68.1,60.2,54.6,56.0,51.7,41.0,94,75,41,30.08,30.01,9,3,13,0.00
2013-9-6,67.4,59.2,53.8,61.0,55.8,52.0,98,88,71,30.10,30.02,8,1,12,0.00
2013-9-7,66.5,60.0,54.9,58.0,56.6,54.0,98,89,69,30.05,29.93,7,2,13,0.00
2013-9-8,67.4,60.8,58.2,61.0,58.5,57.0,99,92,75,29.96,29.88,15,4,19,0.00
2013-9-9,69.5,62.4,58.8,63.0,60.1,57.0,98,92,78,30.08,29.96,7,1,10,0.00
2013-9-10,71.0,62.7,56.3,65.0,60.1,56.0,99,91,74,30.17,30.08,3,0,8,0.00
2013-9-11,70.8,63.7,58.5,64.0,61.1,56.0,99,91,77,30.15,30.01,8,2,13,0.00
2013-9-12,67.7,62.1,56.7,64.0,60.5,55.0,99,94,83,30.01,29.78,10,4,19,0.00
2013-9-13,57.8,53.5,44.2,57.0,50.9,43.0,99,91,72,29.86,29.71,17,6,25,0.00
2013-9-14,60.7,50.1,40.6,53.0,46.2,39.0,97,87,66,30.08,29.86,7,1,9,0.00
2013-9-15,62.1,53.9,47.5,56.0,51.9,47.0,99,93,78,30.15,30.07,7,1,11,0.00
2013-9-16,62.0,55.6,51.2,56.0,53.6,50.0,99,93,77,30.12,30.05,8,2,13,0.00
2013-9-17,56.8,50.9,46.9,52.0,48.9,46.0,98,93,79,30.22,30.12,4,0,9,0.00
2013-9-18,58.8,51.1,45.3,55.0,50.0,45.0,99,96,86,30.22,30.13,5,0,11,0.00
2013-9-19,55.0,54.5,53.6,55.0,54.5,53.0,99,99,99,30.14,30.09,8,2,12,0.00
2013-9-23,60.6,53.8,48.3,54.0,48.6,-99.9,97,86,77,30.01,29.96,9,-16,13,0.00
2013-9-24,66.0,53.8,45.8,58.0,51.2,45.0,98,91,73,30.01,29.87,6,1,9,0.00
2013-9-25,53.9,51.4,49.7,53.0,51.0,49.0,98,98,97,29.88,29.78,3,0,7,0.00
2013-9-26,59.1,52.3,48.4,52.0,46.5,-99.9,98,88,71,29.99,29.83,5,-10,9,0.00
2013-9-27,61.4,53.1,45.2,55.0,49.3,44.0,96,87,69,30.11,29.99,6,1,9,0.00
2013-9-28,57.8,50.1,44.8,52.0,47.9,44.0,97,92,76,30.17,30.09,5,1,10,0.00
2013-9-29,59.0,50.2,41.3,52.0,47.3,40.0,98,90,71,30.10,29.99,7,1,11,0.00
2013-9-30,57.8,51.1,47.3,53.0,49.6,47.0,98,94,83,30.04,29.96,4,0,7,0.00
2013-10-1,62.0,54.3,48.2,53.0,50.8,47.0,97,88,71,30.11,30.02,7,2,12,0.00
2013-10-2,64.0,56.1,51.7,55.0,52.3,51.0,97,87,66,30.12,30.04,7,2,15,0.00
2013-10-3,65.7,57.5,52.9,59.0,54.4,52.0,97,90,74,30.08,30.01,5,0,7,0.00
2013-10-4,66.6,58.8,53.8,59.0,55.8,53.0,98,90,75,30.10,30.03,7,2,14,0.00
2013-10-5,69.8,60.4,55.6,61.0,53.6,-99.9,97,85,70,30.08,29.97,5,-9,12,0.00
2013-10-6,65.2,58.1,54.0,59.0,56.2,54.0,98,93,78,29.96,29.80,10,3,18,0.00
2013-10-7,57.3,49.5,44.2,57.0,48.4,41.0,98,96,88,29.98,29.69,12,3,18,0.00
2013-10-8,56.4,47.5,43.0,46.0,37.3,23.0,89,69,37,30.16,29.97,10,3,15,0.00
2013-10-9,59.8,50.6,42.4,47.0,40.3,32.0,84,68,58,30.18,30.08,9,1,9,0.00
2013-10-10,53.4,49.4,45.4,48.0,43.2,33.0,94,80,53,30.07,30.00,12,6,17,0.00
2013-10-11,57.3,51.6,46.6,48.0,46.1,42.0,96,82,65,30.00,29.93,14,6,20,0.00
2013-10-12,52.8,50.9,48.5,52.0,49.6,47.0,98,95,86,30.07,29.93,10,2,14,0.00
2013-10-13,55.7,52.8,50.3,55.0,52.3,50.0,98,98,97,30.16,30.06,5,1,10,0.00
2013-10-14,53.4,51.4,48.9,53.0,50.8,48.0,98,97,94,30.18,30.10,6,1,10,0.00
2013-10-15,61.8,52.5,45.4,53.0,49.0,45.0,98,88,67,30.14,29.98,5,1,9,0.00
2013-10-16,60.0,50.9,44.0,54.0,48.5,43.0,98,92,79,29.98,29.91,11,0,12,0.00
2013-10-17,57.9,52.6,45.3,57.0,51.6,45.0,98,96,92,29.93,29.76,5,1,14,0.00
2013-10-18,59.3,47.1,37.6,49.0,42.6,32.0,98,87,37,29.96,29.81,13,2,15,0.00
2013-10-19,53.1,46.1,39.1,46.0,42.4,35.0,98,88,52,29.90,29.79,18,2,18,0.00
2013-10-20,53.5,41.1,29.9,38.0,29.3,2.0,95,69,16,30.06,29.85,11,2,18,0.00
2013-10-21,56.7,44.1,36.1,46.0,40.2,35.0,97,87,45,30.09,29.97,5,1,10,0.00
2013-10-22,53.1,46.6,42.6,44.0,40.6,37.0,92,80,64,29.97,29.74,9,2,11,0.00
2013-10-23,41.8,32.6,23.7,39.0,30.7,22.0,95,92,88,29.96,29.64,20,5,34,0.00
2013-10-24,33.8,27.0,22.8,30.0,22.8,-99.9,95,90,82,30.19,29.96,16,-9,18,0.05
2013-10-25,27.0,22.3,18.1,26.0,20.7,16.0,95,93,88,30.40,30.20,12,4,22,0.05
2013-10-26,46.7,34.9,22.9,38.0,22.0,12.0,91,62,32,30.40,30.08,9,2,14,0.23
2013-10-27,51.4,41.4,33.6,44.0,36.8,31.0,94,84,59,30.11,30.01,12,4,19,0.01
2013-10-28,49.2,45.5,44.0,46.0,44.1,43.0,97,95,82,30.22,30.09,8,1,13,0.01
2013-10-29,54.9,47.6,43.3,47.0,44.6,43.0,98,90,70,30.30,30.20,7,1,10,0.01
2013-10-30,60.2,51.3,46.1,51.0,48.1,44.0,96,89,69,30.22,30.13,9,2,16,0.01
2013-10-31,52.6,50.0,48.3,52.0,49.0,47.0,98,96,90,30.12,29.72,11,6,22,0.00
2013-11-1,62.4,52.4,44.4,52.0,45.6,38.0,98,80,43,29.73,29.60,9,3,26,0.00
2013-11-2,45.6,39.5,33.8,40.0,34.7,30.0,93,83,63,29.96,29.63,13,4,20,0.00
2013-11-3,38.2,33.0,28.7,31.0,28.9,27.0,96,85,68,30.36,29.94,16,4,25,0.00
2013-11-4,43.4,33.7,29.0,27.0,24.9,22.0,84,71,49,30.48,30.37,8,3,13,0.05
2013-11-5,47.5,40.4,29.0,43.0,22.2,5.0,97,55,18,30.52,30.36,10,4,14,0.02
2013-11-6,51.9,45.6,42.8,47.0,44.1,42.0,98,95,79,30.36,30.06,8,4,14,0.01
2013-11-7,47.4,38.3,25.7,47.0,37.4,25.0,98,96,90,30.06,29.92,19,7,32,0.01
2013-11-8,33.0,27.7,22.6,24.0,19.7,14.0,95,74,47,30.35,30.03,20,7,34,0.02
2013-11-9,49.6,38.0,28.1,21.0,13.8,-9.0,65,41,11,30.35,30.18,6,2,14,0.12
2013-11-10,45.6,38.4,31.6,33.0,25.4,8.0,84,61,27,30.20,30.12,24,8,28,0.12
2013-11-11,53.5,43.2,30.8,20.0,4.6,-26.0,61,24,5,30.29,30.11,9,2,17,0.00
2013-11-12,44.2,27.1,11.2,30.0,18.6,9.0,94,75,26,30.35,29.97,27,8,33,0.00
2013-11-13,33.4,19.7,9.9,18.0,8.7,-12.0,91,69,16,30.61,30.36,19,6,26,0.00
2013-11-14,48.2,36.7,31.3,17.0,7.6,-1.0,51,31,18,30.55,30.27,9,3,15,0.00
2013-11-15,46.4,40.7,34.7,42.0,26.4,-4.0,97,66,15,30.28,30.14,9,3,16,0.30
2013-11-16,53.0,45.7,41.8,49.0,44.0,41.0,98,94,77,30.20,30.11,11,2,14,0.31
2013-11-17,51.7,47.8,45.2,52.0,47.5,45.0,99,98,98,30.10,29.82,14,5,15,0.18
2013-11-18,53.0,42.2,30.2,53.0,36.9,22.0,99,83,55,29.90,29.78,25,7,33,0.02
2013-11-19,37.4,29.6,21.8,23.0,19.7,14.0,88,68,39,30.25,29.89,25,6,30,0.04
2013-11-20,35.8,28.2,20.5,25.0,21.2,18.0,90,76,48,30.43,30.24,8,3,13,0.05
2013-11-21,44.7,38.9,25.8,44.0,38.0,24.0,98,96,89,30.49,30.36,9,5,13,0.04
2013-11-22,51.9,47.9,44.2,51.0,47.2,44.0,98,97,92,30.36,30.04,7,2,17,0.01
2013-11-23,45.6,32.3,16.7,45.0,31.1,14.0,98,95,84,30.08,30.00,17,6,34,0.01
2013-11-24,19.2,12.0,6.4,13.0,3.2,-11.0,92,71,27,30.57,30.07,24,8,34,0.01
2013-11-25,33.6,25.7,15.7,29.0,-2.5,-18.0,96,35,15,30.57,30.25,7,3,11,0.00
2013-11-26,43.2,36.6,28.0,43.0,36.1,27.0,98,98,95,30.24,29.61,12,4,17,0.75
2013-11-27,34.1,17.1,8.3,34.0,15.7,7.0,98,94,92,30.12,29.54,10,0,21,0.75
2013-11-28,37.2,25.3,8.0,18.0,5.8,-12.0,93,52,15,30.50,30.13,5,0,11,0.13
2013-11-29,40.9,30.8,22.4,22.0,13.3,-7.0,81,51,19,30.53,30.43,10,3,14,0.10
2013-11-30,41.5,30.3,20.1,24.0,18.4,9.0,86,63,35,30.52,30.32,7,2,10,0.08
2013-12-1,44.1,36.4,32.9,31.0,25.7,9.0,85,67,33,30.32,29.98,7,2,12,0.28
2013-12-2,43.1,35.8,32.6,35.0,31.7,30.0,92,85,73,29.97,29.79,5,2,10,0.02
2013-12-3,46.4,39.7,32.6,42.0,38.2,31.0,97,94,81,29.91,29.82,4,2,8,0.01
2013-12-4,50.4,44.5,40.0,49.0,43.8,40.0,98,97,91,30.02,29.90,7,3,11,0.01
2013-12-5,55.6,51.1,45.1,55.0,50.6,45.0,99,98,95,30.05,29.92,5,2,9,0.01
2013-12-6,55.8,53.9,44.2,56.0,53.8,44.0,99,99,98,29.93,29.82,7,2,19,0.01
2013-12-7,49.1,36.9,29.4,49.0,36.4,29.0,99,98,94,30.27,29.88,11,2,17,0.02
2013-12-8,41.4,31.6,25.3,41.0,31.1,24.0,99,98,96,30.27,30.15,9,1,16,0.15
2013-12-9,49.0,42.3,34.4,49.0,42.0,34.0,99,98,82,30.15,29.94,11,2,16,0.01
2013-12-10,41.1,27.8,15.3,41.0,26.7,14.0,98,95,83,30.24,29.82,22,6,25,0.01
2013-12-11,37.1,27.0,17.6,18.0,8.4,-4.0,86,49,27,30.46,30.24,17,4,18,0.15
2013-12-12,22.2,17.0,13.2,17.0,10.9,2.0,92,78,45,30.41,30.23,16,7,24,0.15
2013-12-13,39.0,28.7,19.0,18.0,13.7,6.0,68,54,38,30.42,30.24,7,2,12,0.11
2013-12-14,39.5,32.5,27.3,39.0,29.1,17.0,98,88,57,30.26,29.77,14,4,17,0.47
2013-12-15,38.4,24.1,18.3,38.0,23.0,17.0,98,95,94,30.05,29.70,15,5,25,0.61
2013-12-16,34.6,28.1,20.7,32.0,25.3,20.0,98,90,70,30.23,30.04,9,2,18,0.15
2013-12-17,42.0,33.3,22.5,31.0,26.9,16.0,92,78,61,30.15,29.91,17,5,37,0.22
2013-12-18,36.9,23.6,13.9,20.0,10.6,-15.0,92,64,12,30.36,29.96,22,7,30,0.22
2013-12-19,54.4,43.5,34.9,24.0,19.6,16.0,51,40,24,30.36,30.10,8,4,13,0.05
2013-12-20,53.3,44.1,36.9,41.0,25.9,14.0,79,50,29,30.13,30.06,8,3,16,0.05
2013-12-21,53.4,48.8,41.3,53.0,47.9,38.0,99,97,80,30.06,29.85,13,5,23,0.29
2013-12-22,53.9,50.0,46.7,54.0,49.8,47.0,99,99,99,29.96,29.83,21,3,23,1.04
2013-12-23,50.1,36.9,21.1,50.0,36.6,20.0,99,98,96,30.09,29.89,11,2,19,0.18
2013-12-24,21.1,15.3,9.7,20.0,14.0,8.0,96,94,92,30.44,30.09,0,0,0,0.18
2013-12-25,31.0,22.3,14.3,19.0,12.2,5.0,94,67,46,30.53,30.34,0,0,0,0.02
2013-12-26,30.3,25.7,21.5,22.0,17.1,8.0,88,71,44,30.38,30.27,7,1,18,0.02
2013-12-27,36.6,31.2,24.6,22.0,14.4,9.0,77,52,33,30.46,30.35,10,1,12,0.04
2013-12-28,48.7,40.6,32.3,36.0,10.1,-11.0,94,38,10,30.39,30.00,11,2,18,0.14
2013-12-29,40.3,34.2,28.5,40.0,33.6,28.0,98,97,95,29.98,29.71,10,4,25,0.03
2013-12-30,30.2,28.3,22.9,30.0,27.5,20.0,98,97,86,30.12,29.90,0,0,0,0.02
2013-12-31,28.7,22.2,17.4,19.0,16.2,12.0,93,79,54,30.41,30.09,11,2,21,0.02
2014-1-1,35.1,29.5,25.7,22.0,15.4,6.0,84,57,39,30.40,30.10,6,3,10,0.00
2014-1-2,37.9,30.1,6.8,37.0,25.0,5.0,97,83,44,30.09,29.57,17,4,31,0.06